EDT,Max TemperatureF,Mean TemperatureF,Min TemperatureF,Max Dew PointF,MeanDew PointF,Min DewpointF,Max Humidity, Mean Humidity, Min Humidity, Max Sea Level PressureIn, Mean Sea Level PressureIn, Min Sea Level PressureIn, Max VisibilityMiles, Mean VisibilityMiles, Min VisibilityMiles, Max Wind SpeedMPH, Mean Wind SpeedMPH, Max Gust SpeedMPH,PrecipitationIn, CloudCover, Events, WindDirDegrees
2013-3-1,41,38,33,29,26,21,79,63,53,29.86,29.77,29.69,10,10,10,13,8,21,0.00,7,,312
2013-3-2,37,34,30,23,19,18,75,57,47,29.86,29.82,29.78,10,10,7,16,10,21,0.00,8,Snow,322
2013-3-3,35,31,27,22,18,15,69,59,48,29.86,29.81,29.77,10,10,2,18,11,26,0.00,8,Snow,312
2013-3-4,37,32,27,18,16,14,66,56,46,30.02,29.94,29.87,10,10,10,28,17,34,0.00,5,,303
2013-3-5,44,34,25,26,22,17,75,61,45,30.06,30.00,29.91,10,10,7,12,8,16,0.00,2,,342
2013-3-6,39,36,33,33,30,24,87,75,57,30.00,29.84,29.75,10,9,4,25,17,36,0.24,7,Rain,47
2013-3-7,46,40,34,26,22,19,64,52,39,30.14,30.08,30.01,10,10,10,18,10,25,0.00,5,,345
2013-3-8,44,38,32,24,21,18,64,51,45,30.28,30.17,30.12,10,10,6,25,15,36,0.00,4,Snow,342
2013-3-9,59,44,30,24,21,15,64,43,18,30.33,30.28,30.25,10,10,8,9,6,,0.00,0,,303
2013-3-10,57,44,30,32,25,20,89,51,23,30.33,30.28,30.23,10,9,7,14,5,20,0.00,1,,133
2013-3-11,55,45,35,46,39,32,93,79,59,30.26,30.13,29.97,10,9,5,16,7,22,0.00,5,,139
2013-3-12,55,48,41,54,46,28,100,84,60,29.93,29.80,29.72,10,6,0,21,12,26,1.27,8,Fog-Rain,233
2013-3-13,46,40,32,32,25,16,81,59,40,30.00,29.92,29.87,10,10,8,23,9,29,0.01,4,Rain,287
2013-3-14,41,34,28,17,14,10,61,45,33,30.05,30.01,29.97,10,10,9,29,17,43,0.00,3,,298
2013-3-15,53,40,27,30,20,10,63,47,35,30.05,29.90,29.74,10,10,10,18,10,30,0.00,4,,272
2013-3-16,45,38,32,30,28,21,93,81,51,29.94,29.80,29.73,10,4,1,14,8,,0.16,8,Rain-Snow,53
2013-3-17,37,34,30,30,24,18,89,71,48,30.29,30.11,29.94,10,7,3,13,4,,0.00,5,,348
2013-3-18,35,32,28,31,26,15,93,78,52,30.34,30.12,29.91,10,6,0,16,8,22,0.43,7,Fog-Rain-Snow,88
2013-3-19,51,42,33,35,29,16,96,77,32,29.90,29.80,29.70,10,6,1,25,7,34,0.02,6,Rain,354
2013-3-20,46,36,28,21,17,15,61,45,30,29.94,29.87,29.78,10,10,6,22,13,32,0.00,4,Snow,282
2013-3-21,36,31,26,19,13,6,59,47,33,29.84,29.79,29.73,10,10,9,22,10,28,0.00,6,Snow,321
2013-3-22,41,32,25,25,18,12,80,59,43,29.98,29.88,29.82,10,8,1,22,12,29,0.00,5,Snow,280
2013-3-23,46,36,28,20,19,17,69,50,37,29.99,29.96,29.92,10,10,9,20,10,30,0.00,2,,295
2013-3-24,45,34,25,25,20,17,75,54,34,29.99,29.85,29.67,10,10,10,8,5,,0.00,2,,12
2013-3-25,36,33,30,31,30,24,100,86,62,29.67,29.56,29.51,10,3,0,15,6,,0.26,8,Fog-Rain-Snow,10
2013-3-26,50,40,32,31,29,23,93,72,36,29.95,29.80,29.66,10,8,2,17,9,22,0.00,6,,288
2013-3-27,48,40,33,27,26,25,78,60,42,30.06,30.00,29.94,10,10,10,20,10,28,0.00,4,,291
2013-3-28,48,38,30,30,26,23,79,59,41,30.19,30.09,30.04,10,10,10,15,7,23,0.00,6,,304
2013-3-29,53,45,37,30,26,23,65,51,33,30.21,30.18,30.12,10,10,10,14,8,22,0.00,5,,305
2013-3-30,55,42,28,29,25,20,82,51,27,30.22,30.16,30.11,10,9,5,13,4,,0.00,0,,273
2013-3-31,53,43,34,45,39,25,96,80,46,30.12,29.84,29.72,10,5,2,15,6,,0.04,6,Rain,139